User: anonymous   Login
Location: Unspecified
(0.0000°N, 0.0000°E)
Time: 14:42:36
(UTC+01:00)
Language:

GPS 2-05 Rocket1 - Orbit

View from above orbital plane
View from above orbital plane
View from above satellite
View from above satellite

Ground track
Ground track

The orbit data is extracted from the following two-line orbital elements,

1 20362U 89097B   14303.12315715  .00022368  00000-0  73499-3 0  5589
2 20362 035.6223 279.6000 0106245 223.2977 189.4810 15.25308324351485
Epoch (UTC): 30 October 2014 02:57:20
Eccentricity: 0.0106245
inclination: 35.6223°
perigee height: 417 km
apogee height: 563 km
right ascension of ascending node: 279.6000°
argument of perigee: 223.2977°
revolutions per day: 15.25308324
mean anomaly at epoch: 189.4810°
orbit number at epoch: 35148

The dashed part of the orbit path shows where the satellite is in the earth's shadow,  

DLR